DW9106 Madrid ES current weather conditions

sailwx.info

Wind from 151 at 2 knots gusting 6

Air temperature 26.7° C
Dewpoint 9.9° C

Last reported at 2015-May-30 11:40 UTC.
Time now 2015-May-30 12:37 UTC

Location: N 40°23' W 003°38'.
View on Google Maps.

See reports from other nearby stations

  
Tides and Currents Weather Stations Pressure Air Temp Water Temp Dewpoint Dewpoint Depression Visibility Wind Speed Wind Dir Waves Ship Positions
date/time (UTC)wind fromknots sea level pressurealtimeterstation pressurevisibilityair tempwater tempwave heightnotes
2015-May-30 11:40 151 2 gusting 6 26.7
2015-May-30 11:25 221 1 gusting 8 25.6
2015-May-30 11:10 196 0 gusting 6 25.6
2015-May-30 10:55 292 2 gusting 6 25.0
2015-May-30 10:40 230 2 gusting 6 25.0
2015-May-30 10:25 282 0 gusting 5 24.4
2015-May-30 10:10 239 1 gusting 6 23.9
2015-May-30 09:55 240 0 gusting 4 23.3
2015-May-30 09:39 175 22.8
2015-May-30 09:24 188 0 gusting 3 22.8
2015-May-30 09:09 150 22.2
2015-May-30 08:54 119 0 gusting 3 21.7
2015-May-30 08:39 065 21.1
2015-May-30 08:24 085 0 gusting 2 20.0
2015-May-30 08:09 141 0 gusting 4 18.9
2015-May-30 07:54 034 1 gusting 5 18.3
2015-May-30 07:39 095 1 gusting 4 18.3
2015-May-30 07:24 083 0 gusting 3 17.8
2015-May-30 07:09 041 0 gusting 6 17.2
2015-May-30 06:54 032 1 gusting 6 16.7
2015-May-30 06:39 028 2 gusting 6 16.1
2015-May-30 06:24 093 1 gusting 5 16.1
2015-May-30 06:08 051 1 gusting 4 16.1
2015-May-30 05:53 069 15.6
2015-May-30 05:38 057 0 gusting 4 15.0
2015-May-30 05:23 061 0 gusting 3 15.0
2015-May-30 05:08 071 14.4
2015-May-30 04:53 087 14.4
2015-May-30 04:38 093 0 gusting 2 14.4
2015-May-30 04:23 109 15.0
2015-May-30 04:08 109 14.4
2015-May-30 03:53 109 15.0
2015-May-30 03:38 109 15.0
2015-May-30 03:23 109 15.0
2015-May-30 03:08 109 15.0
2015-May-30 02:53 109 15.6
2015-May-30 02:38 109 16.1
2015-May-30 02:23 109 16.1
2015-May-30 02:08 109 0 gusting 2 16.1
2015-May-30 01:53 109 16.7
2015-May-30 01:38 264 16.7
2015-May-30 01:23 264 17.2
2015-May-30 01:08 264 17.2
2015-May-30 00:53 264 17.2
2015-May-30 00:38 264 17.2
2015-May-30 00:23 264 17.8
2015-May-30 00:08 264 17.8
2015-May-29 23:53 254 17.8
2015-May-29 23:38 169 17.8
2015-May-29 23:22 169 17.8
2015-May-29 23:07 169 18.3
2015-May-29 22:52 169 18.3
2015-May-29 22:37 166 18.9
2015-May-29 22:22 241 18.9
2015-May-29 22:07 241 19.4
2015-May-29 21:52 241 19.4
2015-May-29 21:37 237 19.4
2015-May-29 21:22 275 0 gusting 6 20.0
2015-May-29 21:07 267 3 gusting 7 20.0
2015-May-29 20:52 063 3 gusting 13 20.0
2015-May-29 20:37 293 3 gusting 13 20.6
2015-May-29 20:22 142 4 gusting 12 20.6
2015-May-29 20:07 270 1 gusting 8 20.6
2015-May-29 19:52 257 3 gusting 10 21.1
2015-May-29 19:37 214 4 gusting 13 21.7
2015-May-29 19:22 256 3 gusting 13 22.8
2015-May-29 19:07 269 3 gusting 6 22.8
2015-May-29 18:52 234 1 gusting 8 22.8
2015-May-29 18:37 236 0 gusting 8 22.8
2015-May-29 18:22 168 2 gusting 10 23.3
2015-May-29 18:07 228 4 gusting 9 23.9
2015-May-29 17:52 217 4 gusting 12 24.4
2015-May-29 17:37 194 3 gusting 10 25.0
2015-May-29 17:22 360 2 gusting 13 25.0
2015-May-29 17:07 263 1 gusting 9 25.0
2015-May-29 16:52 198 3 gusting 10 26.1
2015-May-29 16:37 170 2 gusting 13 26.1
2015-May-29 16:22 270 25.6
2015-May-29 16:07 034 1 gusting 8 25.6
2015-May-29 15:52 284 6 gusting 16 25.0
2015-May-29 15:37 284 3 gusting 13 25.6
2015-May-29 15:22 211 6 gusting 15 26.1
2015-May-29 15:07 244 6 gusting 20 27.2
2015-May-29 14:52 221 3 gusting 13 27.8
2015-May-29 14:37 246 3 gusting 10 28.3
2015-May-29 14:22 188 2 gusting 7 28.9
2015-May-29 14:07 231 0 gusting 11 28.9
2015-May-29 13:52 261 3 gusting 6 28.9
2015-May-29 13:37 290 3 gusting 10 28.3
2015-May-29 13:22 157 3 gusting 9 27.8
2015-May-29 13:07 134 1 gusting 10 27.2
2015-May-29 12:52 179 2 gusting 7 26.7
2015-May-29 12:39 215 3 gusting 8 27.2
2015-May-29 12:24 050 3 gusting 8 27.2
2015-May-29 12:07 296 1 gusting 8 26.1
2015-May-29 11:52 086 2 gusting 5 26.1
2015-May-29 11:37 244 1 gusting 5 26.1
2015-May-29 11:21 250 2 gusting 6 25.6
2015-May-29 11:06 146 2 gusting 6 25.0
2015-May-29 10:53 197 1 gusting 5 24.4
2015-May-29 10:36 180 1 gusting 5 24.4
2015-May-29 10:21 256 2 gusting 6 23.9
2015-May-29 10:08 252 0 gusting 4 24.4
2015-May-29 09:53 181 0 gusting 2 23.9
2015-May-29 09:36 057 0 gusting 3 23.9
2015-May-29 09:21 148 0 gusting 3 22.8
2015-May-29 09:08 163 0 gusting 5 22.2
2015-May-29 08:51 132 1 gusting 6 22.2
2015-May-29 08:36 069 2 gusting 6 21.1
2015-May-29 08:23 066 2 gusting 6 21.1
2015-May-29 08:06 098 0 gusting 6 20.6
2015-May-29 07:51 047 1 gusting 4 20.0
2015-May-29 07:36 051 1 gusting 3 20.0
2015-May-29 07:21 035 1 gusting 4 19.4
2015-May-29 07:06 062 0 gusting 3 18.9
2015-May-29 06:51 084 2 gusting 5 18.3
2015-May-29 06:36 072 0 gusting 3 18.3
2015-May-29 06:21 046 0 gusting 2 18.3
2015-May-29 06:06 090 0 gusting 4 17.8
2015-May-29 05:50 068 17.8
2015-May-29 05:35 057 0 gusting 6 17.2
2015-May-29 05:20 082 0 gusting 4 16.7
2015-May-29 05:05 071 0 gusting 2 16.7
2015-May-29 04:50 071 0 gusting 2 17.2
2015-May-29 04:35 074 17.2
2015-May-29 04:20 080 0 gusting 1 17.2
2015-May-29 04:05 076 1 gusting 3 17.2
2015-May-29 03:50 090 0 gusting 3 17.8
2015-May-29 03:35 076 1 gusting 3 18.3
2015-May-29 03:20 063 0 gusting 3 18.3
2015-May-29 03:05 092 0 gusting 1 18.3
2015-May-29 02:50 086 18.3
2015-May-29 02:35 076 1 gusting 3 18.3
2015-May-29 02:20 071 1 gusting 3 18.3
2015-May-29 02:05 070 2 gusting 6 18.9
2015-May-29 01:50 064 1 gusting 6 18.9
2015-May-29 01:35 074 2 gusting 6 18.9
2015-May-29 01:20 090 1 gusting 5 19.4
2015-May-29 01:05 068 1 gusting 5 20.0
2015-May-29 00:50 074 2 gusting 6 21.1
2015-May-29 00:35 068 0 gusting 2 21.7
2015-May-29 00:20 068 21.7
2015-May-29 00:05 068 22.2
2015-May-28 23:50 068 22.2
2015-May-28 23:35 068 22.2
2015-May-28 23:20 068 22.8
2015-May-28 23:04 068 1 gusting 3 23.3
2015-May-28 22:49 068 23.9
2015-May-28 22:34 111 0 gusting 7 23.9
2015-May-28 22:19 059 1 gusting 6 23.9
2015-May-28 22:04 251 22.8
2015-May-28 21:49 251 23.9
2015-May-28 21:34 251 24.4
2015-May-28 21:19 251 25.0
2015-May-28 21:04 251 25.6
2015-May-28 20:49 251 25.6
2015-May-28 20:34 250 25.6
2015-May-28 20:19 250 26.1
2015-May-28 20:04 250 26.7
2015-May-28 19:49 250 27.2
2015-May-28 19:34 250 27.8
2015-May-28 19:21 250 28.3
2015-May-28 19:04 250 28.9
2015-May-28 18:49 252 29.4
2015-May-28 18:34 252 0 gusting 2 30.0
2015-May-28 18:19 180 0 gusting 2 30.0
2015-May-28 18:04 179 0 gusting 1 30.6
2015-May-28 17:49 129 0 gusting 6 30.6
2015-May-28 17:34 211 2 gusting 6 31.1
2015-May-28 17:19 279 0 gusting 5 30.6
2015-May-28 17:04 195 30.6
2015-May-28 16:49 128 2 gusting 6 30.6
2015-May-28 16:19 182 0 gusting 3 31.1
2015-May-28 16:04 171 2 gusting 7 31.1
2015-May-28 15:49 252 2 gusting 5 30.6
2015-May-28 15:34 138 0 gusting 6 30.6
2015-May-28 15:19 137 1 gusting 8 30.6
2015-May-28 15:04 240 1 gusting 7 30.6
2015-May-28 14:49 248 2 gusting 6 30.6
2015-May-28 14:34 180 30.0
2015-May-28 14:19 141 30.0
2015-May-28 14:04 277 1 gusting 6 30.0
2015-May-28 13:49 203 1 gusting 7 30.0
2015-May-28 13:34 201 1 gusting 7 30.0
2015-May-28 13:19 205 1 gusting 6 30.0
2015-May-28 13:04 146 0 gusting 6 29.4
2015-May-28 12:49 178 0 gusting 5 28.3
2015-May-28 12:34 140 3 gusting 7 28.3
2015-May-28 12:19 158 0 gusting 5 27.8
2015-May-28 12:03 294 2 gusting 6 27.8